DW4326 Weather Reports


Display with metric or nautical units.
time (UTC)temp
F
wind
direction
speed
MPH
gust
MPH
rain 1hr
in
rain 24hr
in
rain mn
in
humidity
%
barometer
mb
20260504110639 38 287 0.0 0.0 0.00 0.01 0.01 94 1007.0
20260504081346 36 297 0.0 0.0 0.00 0.02 0.01 93 1007.1
20260504045105 32 330 0.0 0.0 0.00 0.01 0.00 87 1008.0
20260504043605 32 330 0.0 0.0 0.00 0.01 0.00 88 1008.1
20260504042105 32 330 0.0 0.0 0.00 0.01 0.00 88 1008.2
20260504040607 31 330 0.0 0.0 0.00 0.01 0.00 88 1008.1
20260504035105 31 330 0.0 0.0 0.00 0.01 0.01 87 1008.0
20260504034336 31 330 0.0 0.0 0.00 0.01 0.01 86 1008.0
20260504032103 31 330 0.0 0.0 0.00 0.01 0.01 85 1008.0
20260504030602 32 330 0.0 0.0 0.00 0.01 0.01 85 1008.1
20260504025103 32 330 0.0 0.0 0.00 0.01 0.01 84 1008.1
20260504023604 33 330 0.0 0.0 0.00 0.01 0.01 83 1008.1
20260504022102 33 330 0.0 0.0 0.00 0.01 0.01 83 1008.1
20260504020602 34 330 0.0 0.0 0.00 0.01 0.01 81 1008.0
20260504015834 35 330 0.0 0.0 0.00 0.01 0.01 80 1008.0
20260504013601 35 330 0.0 0.0 0.00 0.01 0.01 79 1007.9
20260504012830 36 330 0.0 0.0 0.00 0.01 0.01 78 1007.8
20260504010558 37 330 0.0 0.0 0.00 0.01 0.01 75 1007.7
20260504005058 38 330 0.0 0.0 0.00 0.01 0.01 74 1007.4
20260504003556 40 330 0.0 0.0 0.00 0.01 0.01 71 1007.3
20260504002052 41 330 0.0 0.0 0.00 0.01 0.01 69 1007.2
20260504000552 42 330 0.0 0.0 0.00 0.01 0.01 65 1007.0
20260503235052 44 330 0.0 0.0 0.00 0.01 0.01 63 1006.8
20260503233554 45 330 0.0 4.0 0.00 0.01 0.01 61 1006.8
20260503232046 46 319 2.0 4.0 0.00 0.01 0.01 56 1006.7
20260503231317 47 5 1.0 5.0 0.00 0.01 0.01 54 1006.6
20260503225042 48 331 1.0 8.0 0.00 0.01 0.01 50 1006.7
20260503223541 49 305 2.0 8.0 0.00 0.01 0.01 46 1006.5
20260503222034 49 14 3.0 8.0 0.00 0.01 0.01 46 1006.5
20260503220536 49 203 2.0 12.0 0.00 0.01 0.01 46 1006.4
20260503215800 49 180 3.0 12.0 0.00 0.01 0.01 46 1006.3
20260503213529 49 331 3.0 12.0 0.00 0.01 0.01 46 1006.4
20260503212023 49 283 4.0 13.0 0.00 0.01 0.01 46 1006.5
20260503210523 49 338 4.0 14.0 0.00 0.01 0.01 48 1006.4
20260503205019 48 15 4.0 9.0 0.00 0.01 0.01 48 1006.2
20260503203520 48 325 2.0 8.0 0.00 0.01 0.01 50 1006.3
20260503202020 48 0 2.0 12.0 0.00 0.01 0.01 49 1006.3
20260503200519 48 310 3.0 11.0 0.00 0.01 0.01 49 1006.3
20260503195018 49 355 4.0 12.0 0.00 0.01 0.01 45 1006.5
20260503193518 48 5 4.0 11.0 0.00 0.01 0.01 49 1006.5
20260503192020 48 259 4.0 12.0 0.00 0.01 0.01 47 1006.4
20260503190515 48 5 4.0 16.0 0.00 0.01 0.01 45 1006.4
20260503185016 48 23 4.0 14.0 0.00 0.01 0.01 44 1006.4
20260503183517 49 301 4.0 12.0 0.00 0.01 0.01 44 1006.4
20260503182747 49 336 5.0 14.0 0.00 0.01 0.01 45 1006.5
20260503180517 50 333 6.0 14.0 0.00 0.01 0.01 45 1006.2
20260503175022 51 5 4.0 15.0 0.00 0.01 0.01 40 1005.9
20260503175016 49 47 4.0 12.0 0.00 0.01 0.01 45 1006.2
20260503173515 49 271 5.0 14.0 0.00 0.01 0.01 45 1006.1
20260503170515 50 5 3.0 15.0 0.00 0.01 0.01 42 1006.0
20260503150454 48 350 3.0 10.0 0.00 0.01 0.01 50 1007.1